DW1973 Weather Reports


Display with metric or nautical units.
time (UTC)temp
F
wind
direction
speed
MPH
gust
MPH
rain 1hr
in
rain 24hr
in
rain mn
in
humidity
%
barometer
mb
20260903100415 78 137 2.0 3.0 0.00 0.00 0.00 87 1014.1
20260903095927 78 138 0.0 3.0 0.00 0.00 0.00 87 1014.2
20260903095418 78 145 0.0 2.0 0.00 0.00 0.00 87 1014.1
20260903094926 78 146 1.0 2.0 0.00 0.00 0.00 88 1014.1
20260903094417 78 142 1.0 4.0 0.00 0.00 0.00 88 1014.0
20260903093932 78 142 1.0 4.0 0.00 0.00 0.00 88 1014.0
20260903093438 78 132 2.0 3.0 0.00 0.00 0.00 88 1013.9
20260903092926 78 132 1.0 2.0 0.00 0.00 0.00 88 1013.9
20260903092436 78 132 0.0 2.0 0.00 0.00 0.00 89 1013.8
20260903091944 78 134 0.0 2.0 0.00 0.00 0.00 89 1013.8
20260903091430 78 129 1.0 2.0 0.00 0.00 0.00 89 1013.8
20260903090940 78 129 1.0 3.0 0.00 0.00 0.00 89 1013.8
20260903090426 78 129 2.0 3.0 0.00 0.00 0.00 89 1013.7
20260903085938 78 134 1.0 3.0 0.00 0.00 0.00 89 1013.8
20260903085447 78 131 1.0 3.0 0.00 0.00 0.00 89 1013.8
20260903084937 77 132 0.0 0.0 0.00 0.00 0.00 89 1013.7
20260903084424 77 126 0.0 0.0 0.00 0.00 0.00 89 1013.7
20260903083927 78 128 0.0 0.0 0.00 0.00 0.00 89 1013.8
20260903083416 78 134 0.0 0.0 0.00 0.00 0.00 89 1013.8
20260903082929 78 133 0.0 0.0 0.00 0.00 0.00 89 1013.9
20260903082418 78 136 0.0 0.0 0.00 0.00 0.00 89 1013.7
20260903081928 78 134 0.0 0.0 0.00 0.00 0.00 89 1013.8
20260903081418 78 134 0.0 0.0 0.00 0.00 0.00 89 1013.8
20260903080926 78 133 0.0 0.0 0.00 0.00 0.00 89 1013.8
20260903080431 78 134 0.0 1.0 0.00 0.00 0.00 89 1013.8
20260903075918 78 132 0.0 3.0 0.00 0.00 0.00 89 1013.8
20260903075426 78 132 2.0 3.0 0.00 0.00 0.00 89 1013.8
20260903074933 78 134 1.0 3.0 0.00 0.00 0.00 88 1013.7
20260903074445 78 136 1.0 3.0 0.00 0.00 0.00 88 1013.7
20260903073928 78 132 0.0 0.0 0.00 0.00 0.00 89 1013.8
20260903073435 78 138 0.0 0.0 0.00 0.00 0.00 88 1013.7
20260903072925 78 135 0.0 0.0 0.00 0.00 0.00 88 1013.7
20260903072414 78 136 0.0 1.0 0.00 0.00 0.00 89 1013.7
20260903071921 78 137 0.0 1.0 0.00 0.00 0.00 89 1013.7
20260903071434 78 138 0.0 0.0 0.00 0.00 0.00 88 1013.7
20260903070944 78 360 0.0 0.0 0.00 0.00 0.00 88 1013.8
20260903070429 79 360 0.0 0.0 0.00 0.00 0.00 88 1013.8
20260903065918 79 178 0.0 0.0 0.00 0.00 0.00 87 1013.8
20260903065426 79 185 0.0 0.0 0.00 0.00 0.00 87 1013.8
20260903064932 79 186 0.0 0.0 0.00 0.00 0.00 87 1013.7
20260903064424 79 186 0.0 0.0 0.00 0.00 0.00 87 1013.8
20260903063914 79 186 0.0 0.0 0.00 0.00 0.00 87 1013.8
20260903063416 79 186 0.0 0.0 0.00 0.00 0.00 87 1013.8
20260903062926 79 186 0.0 0.0 0.00 0.00 0.00 87 1013.9
20260903062437 79 186 0.0 0.0 0.00 0.00 0.00 87 1013.9
20260903061923 80 186 0.0 0.0 0.00 0.00 0.00 87 1013.9
20260903061431 80 186 0.0 0.0 0.00 0.00 0.00 86 1013.9
20260903060919 80 186 0.0 0.0 0.00 0.00 0.00 86 1013.9
20260903060429 80 186 0.0 0.0 0.00 0.00 0.00 86 1013.9
20260903055921 80 186 0.0 0.0 0.00 0.00 0.00 86 1014.0
20260903055428 80 185 0.0 0.0 0.00 0.00 0.00 86 1013.9
20260903054917 80 185 0.0 3.0 0.00 0.00 0.00 86 1014.0
20260903054426 80 185 1.0 3.0 0.00 0.00 0.00 85 1013.9
20260903053958 80 185 1.0 3.0 0.00 0.00 0.00 85 1013.9
20260903053424 81 185 1.0 3.0 0.00 0.00 0.00 85 1013.8
20260903052953 81 185 2.0 3.0 0.00 0.00 0.00 85 1013.8
20260903052422 81 187 1.0 3.0 0.00 0.00 0.00 85 1013.8
20260903051926 81 187 1.0 3.0 0.00 0.00 0.00 85 1013.8
20260903051420 81 187 1.0 3.0 0.00 0.00 0.00 85 1013.8
20260903050924 81 186 2.0 3.0 0.00 0.00 0.00 85 1013.8
20260903050431 81 186 1.0 3.0 0.00 0.00 0.00 85 1013.8
20260903045933 81 184 1.0 2.0 0.00 0.00 0.00 84 1013.7
20260903045422 81 184 0.0 0.0 0.00 0.00 0.00 84 1013.8
20260903044929 81 184 0.0 0.0 0.00 0.00 0.00 84 1013.8
20260903044435 81 184 0.0 0.0 0.00 0.00 0.00 83 1013.9
20260903043923 82 184 0.0 0.0 0.00 0.00 0.00 83 1013.8
20260903043433 82 184 0.0 0.0 0.00 0.00 0.00 83 1013.8
20260903042923 82 184 0.0 0.0 0.00 0.00 0.00 83 1013.8
20260903042430 82 184 0.0 0.0 0.00 0.00 0.00 82 1013.8
20260903041940 82 184 0.0 0.0 0.00 0.00 0.00 82 1013.8
20260903041426 82 184 0.0 0.0 0.00 0.00 0.00 82 1013.7
20260903040933 82 184 0.0 2.0 0.00 0.00 0.00 82 1013.7
20260903040418 82 184 0.0 2.0 0.00 0.00 0.00 82 1013.7
20260903035945 82 184 0.0 1.0 0.00 0.00 0.00 81 1013.7
20260903035432 83 184 0.0 1.0 0.00 0.00 0.00 81 1013.7
20260903034921 83 184 0.0 2.0 0.00 0.00 0.00 81 1013.5
20260903034415 83 184 1.0 3.0 0.00 0.00 0.00 80 1013.6
20260903033922 83 184 2.0 3.0 0.00 0.00 0.00 80 1013.5
20260903033431 83 194 1.0 3.0 0.00 0.00 0.00 80 1013.5
20260903032951 83 199 0.0 0.0 0.00 0.00 0.00 79 1013.5
20260903032419 83 199 0.0 0.0 0.00 0.00 0.00 79 1013.5
20260903031929 84 198 0.0 0.0 0.00 0.00 0.00 79 1013.5
20260903031420 84 198 0.0 0.0 0.00 0.00 0.00 79 1013.5
20260903030928 84 198 0.0 0.0 0.00 0.00 0.00 79 1013.5
20260903030417 84 198 0.0 2.0 0.00 0.00 0.00 78 1013.4
20260903025924 84 198 0.0 4.0 0.00 0.00 0.00 78 1013.5
20260903025433 84 197 1.0 4.0 0.00 0.00 0.00 78 1013.5
20260903024921 84 180 0.0 2.0 0.00 0.00 0.00 78 1013.5
20260903024428 84 178 0.0 3.0 0.00 0.00 0.00 78 1013.4
20260903023936 85 189 2.0 3.0 0.00 0.00 0.00 78 1013.5
20260903023441 85 203 2.0 3.0 0.00 0.00 0.00 77 1013.5
20260903022949 85 204 1.0 3.0 0.00 0.00 0.00 77 1013.5
20260903022415 85 204 1.0 2.0 0.00 0.00 0.00 77 1013.5
20260903021923 85 203 0.0 4.0 0.00 0.00 0.00 77 1013.4
20260903021436 85 198 1.0 4.0 0.00 0.00 0.00 76 1013.3
20260903020920 85 191 3.0 4.0 0.00 0.00 0.00 76 1013.3
20260903020431 85 178 2.0 7.0 0.00 0.00 0.00 76 1013.2
20260903015922 85 195 3.0 7.0 0.00 0.00 0.00 76 1013.1
20260903015429 85 188 3.0 6.0 0.00 0.00 0.00 76 1013.1
20260903014918 85 189 3.0 5.0 0.00 0.00 0.00 76 1013.0
20260903014458 86 186 3.0 6.0 0.00 0.00 0.00 76 1013.0
20260903013944 86 185 3.0 6.0 0.00 0.00 0.00 76 1013.0
20260903013428 86 184 3.0 5.0 0.00 0.00 0.00 76 1012.9
20260903012919 86 194 3.0 5.0 0.00 0.00 0.00 76 1013.0
20260903012427 86 189 2.0 3.0 0.00 0.00 0.00 76 1012.9
20260903011916 86 190 1.0 3.0 0.00 0.00 0.00 75 1012.7
20260903011426 86 190 2.0 4.0 0.00 0.00 0.00 75 1012.8
20260903010932 86 188 2.0 4.0 0.00 0.00 0.00 74 1012.8
20260903010419 87 188 2.0 4.0 0.00 0.00 0.00 74 1012.9
20260903005932 87 188 2.0 4.0 0.00 0.00 0.00 73 1012.8
20260903005419 87 194 1.0 3.0 0.00 0.00 0.00 73 1012.7
20260903004925 87 194 1.0 4.0 0.00 0.00 0.00 73 1012.7
20260903004418 87 191 2.0 4.0 0.00 0.00 0.00 73 1012.6
20260903003928 88 190 2.0 4.0 0.00 0.00 0.00 72 1012.6
20260903003417 88 186 3.0 4.0 0.00 0.00 0.00 72 1012.5
20260903002922 88 198 2.0 4.0 0.00 0.00 0.00 71 1012.6
20260903002428 88 176 2.0 5.0 0.00 0.00 0.00 71 1012.7
20260903001917 88 174 2.0 5.0 0.00 0.00 0.00 70 1012.7
20260903001430 89 186 1.0 4.0 0.00 0.00 0.00 70 1012.8
20260903000941 89 205 2.0 4.0 0.00 0.00 0.00 70 1012.9
20260903000449 89 246 2.0 5.0 0.00 0.00 0.00 69 1012.8
20260902235918 89 208 2.0 5.0 0.00 0.00 0.00 69 1012.8
20260902235425 89 213 3.0 6.0 0.00 0.00 0.00 69 1012.7
20260902234933 89 227 4.0 6.0 0.00 0.00 0.00 69 1012.7
20260902234426 90 192 2.0 7.0 0.00 0.00 0.00 69 1012.7
20260902233917 90 219 3.0 6.0 0.00 0.00 0.00 69 1012.7
20260902233432 90 216 4.0 6.0 0.00 0.00 0.00 68 1012.7
20260902232917 90 185 3.0 6.0 0.00 0.00 0.00 68 1012.7
20260902232424 91 216 3.0 6.0 0.00 0.00 0.00 66 1012.7
20260902231932 91 218 3.0 6.0 0.00 0.00 0.00 67 1012.8
20260902231445 91 211 3.0 7.0 0.00 0.00 0.00 67 1012.9
20260902230933 91 225 3.0 7.0 0.00 0.00 0.00 67 1012.8
20260902230442 91 216 2.0 5.0 0.00 0.00 0.00 68 1012.9
20260902225926 91 198 2.0 6.0 0.00 0.00 0.00 67 1012.9
20260902225415 91 234 3.0 6.0 0.00 0.00 0.00 66 1012.9
20260902224922 91 219 2.0 6.0 0.00 0.00 0.00 66 1012.9
20260902224415 91 204 2.0 6.0 0.00 0.00 0.00 67 1013.0
20260902223925 91 229 2.0 9.0 0.00 0.00 0.00 66 1012.9
20260902223431 91 213 4.0 9.0 0.00 0.00 0.00 66 1012.9
20260902222922 92 207 4.0 7.0 0.00 0.00 0.00 65 1013.1
20260902222427 92 225 2.0 6.0 0.00 0.00 0.00 65 1013.1
20260902221935 92 238 3.0 5.0 0.00 0.00 0.00 63 1013.0
20260902221425 93 249 2.0 7.0 0.00 0.00 0.00 62 1013.1
20260902220933 93 247 3.0 10.0 0.00 0.00 0.00 61 1013.0
20260902220439 93 192 2.0 10.0 0.00 0.00 0.00 61 1013.0
20260902215928 94 219 3.0 7.0 0.00 0.00 0.00 61 1012.9
20260902215416 94 255 1.0 7.0 0.00 0.00 0.00 59 1013.0
20260902214926 93 294 3.0 8.0 0.00 0.00 0.00 59 1013.0
20260902214439 93 204 3.0 10.0 0.00 0.00 0.00 59 1013.0
20260902213947 94 232 4.0 10.0 0.00 0.00 0.00 60 1013.0
20260902213416 94 214 3.0 9.0 0.00 0.00 0.00 59 1013.1
20260902212923 94 234 3.0 8.0 0.00 0.00 0.00 57 1013.3
20260902212432 94 213 4.0 7.0 0.00 0.00 0.00 61 1013.2
20260902211918 94 260 2.0 9.0 0.00 0.00 0.00 60 1013.2
20260902211430 94 215 3.0 8.0 0.00 0.00 0.00 58 1013.2
20260902210919 94 244 3.0 6.0 0.00 0.00 0.00 59 1013.2
20260902210427 94 192 2.0 8.0 0.00 0.00 0.00 61 1013.2
20260902205940 94 197 3.0 7.0 0.00 0.00 0.00 60 1013.2
20260902205426 94 207 3.0 7.0 0.00 0.00 0.00 58 1013.2
20260902204933 94 288 2.0 12.0 0.00 0.00 0.00 57 1013.2
20260902204426 94 209 5.0 12.0 0.00 0.00 0.00 57 1013.3
20260902203933 94 223 3.0 9.0 0.00 0.00 0.00 59 1013.3
20260902203442 94 245 4.0 11.0 0.00 0.00 0.00 60 1013.2
20260902202928 94 188 4.0 7.0 0.00 0.00 0.00 61 1013.2
20260902202437 94 262 4.0 9.0 0.00 0.00 0.00 60 1013.2
20260902201945 94 286 4.0 9.0 0.00 0.00 0.00 58 1013.3
20260902201434 94 268 4.0 9.0 0.00 0.00 0.00 58 1013.3
20260902200919 94 222 2.0 9.0 0.00 0.00 0.00 59 1013.3
20260902200426 93 191 4.0 9.0 0.00 0.00 0.00 59 1013.5
20260902195917 93 242 4.0 8.0 0.00 0.00 0.00 59 1013.5
20260902195424 93 214 4.0 8.0 0.00 0.00 0.00 60 1013.5
20260902194932 93 247 3.0 7.0 0.00 0.00 0.00 61 1013.6
20260902194423 93 267 3.0 9.0 0.00 0.00 0.00 60 1013.6
20260902193932 93 256 4.0 9.0 0.00 0.00 0.00 59 1013.7
20260902193422 93 217 4.0 10.0 0.00 0.00 0.00 62 1013.8
20260902192931 93 254 3.0 10.0 0.00 0.00 0.00 62 1013.8
20260902192436 93 215 3.0 9.0 0.00 0.00 0.00 63 1013.9
20260902191942 93 197 4.0 7.0 0.00 0.00 0.00 62 1013.9
20260902191427 93 219 2.0 6.0 0.00 0.00 0.00 62 1014.0
20260902190935 93 226 3.0 7.0 0.00 0.00 0.00 61 1013.9
20260902190449 93 198 4.0 7.0 0.00 0.00 0.00 60 1014.0
20260902185919 93 211 3.0 7.0 0.00 0.00 0.00 62 1014.1
20260902185428 92 237 4.0 9.0 0.00 0.00 0.00 63 1014.1
20260902184915 92 243 5.0 9.0 0.00 0.00 0.00 62 1014.2
20260902184428 92 232 5.0 8.0 0.00 0.00 0.00 63 1014.0
20260902183914 92 204 3.0 8.0 0.00 0.00 0.00 61 1014.1
20260902183423 92 231 3.0 8.0 0.00 0.00 0.00 60 1014.1
20260902182914 92 232 2.0 9.0 0.00 0.00 0.00 63 1014.2
20260902182418 92 192 2.0 9.0 0.00 0.00 0.00 62 1014.2
20260902181924 92 227 3.0 9.0 0.00 0.00 0.00 62 1014.3
20260902181418 92 200 5.0 9.0 0.00 0.00 0.00 61 1014.3
20260902180926 91 192 3.0 8.0 0.00 0.00 0.00 63 1014.3
20260902180413 91 225 4.0 8.0 0.00 0.00 0.00 64 1014.4
20260902175924 91 219 3.0 8.0 0.00 0.00 0.00 64 1014.3
20260902175431 91 251 3.0 7.0 0.00 0.00 0.00 61 1014.4
20260902174940 91 203 4.0 7.0 0.00 0.00 0.00 64 1014.4
20260902174431 90 253 3.0 7.0 0.00 0.00 0.00 65 1014.4
20260902173936 90 201 2.0 7.0 0.00 0.00 0.00 64 1014.3
20260902173450 90 206 4.0 8.0 0.00 0.00 0.00 63 1014.4
20260902172932 90 218 3.0 8.0 0.00 0.00 0.00 65 1014.4
20260902172418 90 220 3.0 8.0 0.00 0.00 0.00 66 1014.4
20260902171927 90 196 2.0 7.0 0.00 0.00 0.00 66 1014.4
20260902171421 89 207 4.0 7.0 0.00 0.00 0.00 65 1014.4
20260902170928 89 228 4.0 6.0 0.00 0.00 0.00 66 1014.5
20260902170433 89 211 2.0 7.0 0.00 0.00 0.00 67 1014.5
20260902165922 89 211 4.0 7.0 0.00 0.00 0.00 66 1014.5
20260902165429 89 241 4.0 6.0 0.00 0.00 0.00 65 1014.7
20260902164918 89 219 2.0 5.0 0.00 0.00 0.00 69 1014.7
20260902164431 89 242 2.0 9.0 0.00 0.00 0.00 67 1014.8
20260902163919 88 205 4.0 9.0 0.00 0.00 0.00 66 1014.7
20260902163425 88 197 4.0 6.0 0.00 0.00 0.00 66 1014.8
20260902162952 88 266 2.0 5.0 0.00 0.00 0.00 66 1014.8
20260902162441 88 234 1.0 5.0 0.00 0.00 0.00 67 1014.9
20260902161928 88 217 2.0 5.0 0.00 0.00 0.00 68 1014.9
20260902161448 87 263 2.0 5.0 0.00 0.00 0.00 68 1014.8
20260902160914 87 212 3.0 6.0 0.00 0.00 0.00 70 1014.9
20260902160421 87 213 2.0 4.0 0.00 0.00 0.00 72 1015.0
20260902155934 87 269 2.0 5.0 0.00 0.00 0.00 73 1015.1
20260902155420 86 217 2.0 7.0 0.00 0.00 0.00 73 1015.1
20260902154927 86 210 3.0 7.0 0.00 0.00 0.00 73 1015.0
20260902154438 86 207 2.0 5.0 0.00 0.00 0.00 72 1015.1
20260902153924 85 205 3.0 5.0 0.00 0.00 0.00 74 1015.0
20260902153428 85 190 2.0 4.0 0.00 0.00 0.00 73 1014.9
20260902152920 85 246 1.0 6.0 0.00 0.00 0.00 75 1015.2
20260902152430 85 278 1.0 6.0 0.00 0.00 0.00 74 1015.1
20260902151917 85 213 2.0 6.0 0.00 0.00 0.00 73 1015.0
20260902151430 84 290 0.0 5.0 0.00 0.00 0.00 75 1015.0
20260902150917 84 229 2.0 5.0 0.00 0.00 0.00 74 1014.9
20260902150425 84 233 2.0 5.0 0.00 0.00 0.00 74 1014.9
20260902145913 84 194 3.0 6.0 0.00 0.00 0.00 74 1014.9
20260902145450 84 223 2.0 6.0 0.00 0.00 0.00 74 1015.0
20260902144913 84 236 3.0 6.0 0.00 0.00 0.00 74 1015.0
20260902144443 83 194 2.0 6.0 0.00 0.00 0.00 75 1015.0
20260902143930 83 205 4.0 6.0 0.00 0.00 0.00 75 1014.9
20260902143417 83 211 2.0 5.0 0.00 0.00 0.00 76 1014.9
20260902142923 82 196 2.0 6.0 0.00 0.00 0.00 76 1014.9
20260902142432 82 176 3.0 6.0 0.00 0.00 0.00 77 1014.8
20260902141917 82 201 3.0 4.0 0.00 0.00 0.00 77 1014.8
20260902141447 82 202 2.0 4.0 0.00 0.00 0.00 77 1014.8
20260902140914 82 200 2.0 6.0 0.00 0.00 0.00 77 1015.0
20260902140451 82 202 3.0 6.0 0.00 0.00 0.00 77 1015.0
20260902135918 81 210 3.0 6.0 0.00 0.00 0.00 77 1015.0
20260902135423 81 185 2.0 6.0 0.00 0.00 0.00 78 1015.0
20260902134933 81 169 3.0 6.0 0.00 0.00 0.00 78 1015.0
20260902134458 80 216 1.0 4.0 0.00 0.00 0.00 80 1015.1
20260902133923 80 221 2.0 6.0 0.00 0.00 0.00 80 1015.1
20260902133431 80 205 3.0 6.0 0.00 0.00 0.00 80 1015.0
20260902132922 79 196 1.0 4.0 0.00 0.00 0.00 81 1015.1
20260902132500 79 196 1.0 4.0 0.00 0.00 0.00 82 1015.1
20260902131949 78 201 1.0 5.0 0.00 0.00 0.00 82 1015.2
20260902131439 78 200 2.0 5.0 0.00 0.00 0.00 82 1015.4
20260902130948 78 205 1.0 5.0 0.00 0.00 0.00 83 1015.4
20260902130414 78 190 1.0 4.0 0.00 0.00 0.00 83 1015.3
20260902125924 77 192 1.0 4.0 0.00 0.00 0.00 83 1015.2
20260902125415 77 192 2.0 4.0 0.00 0.00 0.00 83 1015.3
20260902124920 77 192 1.0 4.0 0.00 0.00 0.00 84 1015.2
20260902124430 77 193 2.0 4.0 0.00 0.00 0.00 84 1015.2
20260902123917 77 191 1.0 3.0 0.00 0.00 0.00 84 1015.1
20260902123424 76 190 1.0 3.0 0.00 0.00 0.00 84 1015.1
20260902122917 76 187 1.0 2.0 0.00 0.00 0.00 84 1015.2
20260902122426 76 187 1.0 2.0 0.00 0.00 0.00 84 1015.2
20260902121914 76 187 0.0 2.0 0.00 0.00 0.00 84 1015.1
20260902121428 76 187 0.0 3.0 0.00 0.00 0.00 84 1015.2
20260902120916 76 184 0.0 2.0 0.00 0.00 0.00 84 1015.1
20260902120423 76 184 0.0 2.0 0.00 0.00 0.00 84 1015.2
20260902115916 76 184 1.0 2.0 0.00 0.00 0.00 84 1015.1
20260902115432 76 184 1.0 4.0 0.00 0.00 0.00 84 1015.1
20260902114920 76 189 2.0 4.0 0.00 0.00 0.00 84 1015.0
20260902114427 76 192 1.0 3.0 0.00 0.00 0.00 84 1015.0
20260902113916 76 200 2.0 3.0 0.00 0.00 0.00 83 1015.0
20260902113423 76 200 1.0 3.0 0.00 0.00 0.00 83 1015.0
20260902112931 76 200 1.0 5.0 0.00 0.00 0.00 83 1015.0
20260902112439 77 198 2.0 5.0 0.00 0.00 0.00 83 1015.0
20260902111927 77 200 3.0 5.0 0.00 0.00 0.00 83 1015.1
20260902111421 77 196 2.0 5.0 0.00 0.00 0.00 82 1015.1
20260902110928 77 215 1.0 3.0 0.00 0.00 0.00 82 1015.1
20260902110416 77 180 0.0 2.0 0.00 0.00 0.00 82 1015.1
20260902105947 77 180 0.0 2.0 0.00 0.00 0.00 82 1015.2
20260902105413 77 181 0.0 3.0 0.00 0.00 0.00 82 1015.1
20260902104951 77 180 1.0 3.0 0.00 0.00 0.00 82 1015.1
20260902104414 77 180 2.0 2.0 0.00 0.00 0.00 81 1015.0
20260902103921 77 209 1.0 2.0 0.00 0.00 0.00 81 1015.0
20260902103430 77 209 0.0 1.0 0.00 0.00 0.00 81 1014.9
20260902102921 78 209 0.0 5.0 0.00 0.00 0.00 81 1014.9
20260902102431 78 209 1.0 5.0 0.00 0.00 0.00 81 1015.0
20260902101922 78 198 2.0 4.0 0.00 0.00 0.00 81 1014.9
20260902101414 78 187 1.0 3.0 0.00 0.00 0.00 81 1015.0
20260902100922 78 186 2.0 3.0 0.00 0.00 0.00 81 1015.0